Butler, PA

4:09 PM EST on November 11, 2019 (GMT -0500)
Butler County-Scholter

Weather History for KBTP - October, 2019

Change the Weather History Date:

Sunday, October 20, 2019

  Actual Average Record
Temperature  
Mean Temperature 55 °F -  
Max Temperature 66 °F 57 °F 79 °F (1984)
Min Temperature 44 °F 40 °F 18 °F (1972)
Degree Days  
Heating Degree Days 10    
Growing Degree Days 5 (Base 50)    
Moisture  
Dew Point 46 °F    
Average Humidity 78    
Maximum Humidity 96    
Minimum Humidity 52    
Precipitation  
Precipitation 0.00 in - - ()
Sea Level Pressure  
Sea Level Pressure 29.95 in    
Wind  
Wind Speed 3 mph (ENE)    
Max Wind Speed 6 mph    
Max Gust Speed -    
Visibility 10 miles    
Events      
Averages and records for this station are not official NWS values.
T = Trace of Precipitation, MM = Missing Value Source: NWS Daily Summary

Daily Weather History Graph

Daily Weather History Graph

Search for Another Location

Airport or City:

Astronomy

Oct. 20, 2019 Rise Set
Actual Time 7:36 AM EDT 6:32 PM EDT
Civil Twilight 7:08 AM EDT 7:00 PM EDT
Nautical Twilight 6:36 AM EDT 7:31 PM EDT
Astronomical Twilight 6:04 AM EDT 8:03 PM EDT
Moon 11:38 PM EDT (10/20) 2:04 PM EDT (10/20)
Length of Visible Light 11h 51m
Length of Day
10h 56m
Waning Gibbous, 59% of the Moon is Illuminated
Oct 20
Waning Gibbous
Oct 21
Last Quarter
Oct 27
New
Nov 4
First Quarter
Nov 12
Full

Hourly Weather History & Observations

Time (EDT) Temp. Windchill Dew Point Humidity Pressure Visibility Wind Dir Wind Speed Gust Speed Precip Events Conditions
12:56 AM 50.0 °F - 42.1 °F 74% 29.92 in 10.0 mi ESE 3.5 mph - N/A   Clear
1:56 AM 46.0 °F 44.8 °F 42.1 °F 86% 29.91 in 10.0 mi NNE 3.5 mph - N/A   Clear
2:56 AM 45.0 °F 43.5 °F 42.1 °F 90% 29.91 in 10.0 mi NE 3.5 mph - N/A   Clear
3:56 AM 45.0 °F 42.6 °F 42.1 °F 90% 29.90 in 10.0 mi NNE 4.6 mph - N/A   Partly Cloudy
4:56 AM 45.0 °F 43.5 °F 42.1 °F 90% 29.90 in 10.0 mi NE 3.5 mph - N/A   Unknown
5:56 AM 44.1 °F 42.5 °F 42.1 °F 93% 29.91 in 10.0 mi NNE 3.5 mph - N/A   Clear
6:56 AM 44.1 °F - 43.0 °F 96% 29.92 in 10.0 mi Calm Calm - N/A   Clear
7:56 AM 46.0 °F - 44.1 °F 93% 29.93 in 10.0 mi Calm Calm - N/A   Clear
8:56 AM 48.9 °F - 45.0 °F 86% 29.95 in 10.0 mi Calm Calm - N/A   Clear
9:56 AM 52.0 °F - 46.0 °F 80% 29.95 in 10.0 mi ESE 5.8 mph - N/A   Clear
10:56 AM 55.9 °F - 46.9 °F 72% 29.95 in 10.0 mi Variable 3.5 mph - N/A   Partly Cloudy
11:56 AM 60.1 °F - 48.0 °F 64% 29.94 in 10.0 mi Variable 4.6 mph - N/A   Scattered Clouds
12:56 PM 62.1 °F - 48.0 °F 60% 29.94 in 10.0 mi ESE 3.5 mph - N/A   Clear
1:56 PM 64.0 °F - 48.9 °F 58% 29.94 in 10.0 mi SW 3.5 mph - N/A   Clear
2:56 PM 66.0 °F - 48.0 °F 52% 29.92 in 10.0 mi East 5.8 mph - N/A   Clear
3:56 PM 64.9 °F - 48.0 °F 54% 29.94 in 10.0 mi Calm Calm - N/A   Clear
4:56 PM 66.0 °F - 48.0 °F 52% 29.94 in 10.0 mi Calm Calm - N/A   Clear
5:56 PM 64.0 °F - 48.0 °F 56% 29.95 in 10.0 mi Calm Calm - N/A   Clear
6:56 PM 57.9 °F - 48.9 °F 72% 29.96 in 10.0 mi Calm Calm - N/A   Clear
7:56 PM 53.1 °F - 48.0 °F 83% 29.98 in 10.0 mi Calm Calm - N/A   Clear
8:56 PM 50.0 °F - 48.0 °F 93% 30.01 in 10.0 mi Calm Calm - N/A   Clear
9:56 PM 48.0 °F - 46.9 °F 96% 30.02 in 10.0 mi NE 3.5 mph - N/A   Clear
10:56 PM 46.0 °F 44.8 °F 45.0 °F 96% 30.03 in 10.0 mi NE 3.5 mph - N/A   Clear
11:56 PM 46.0 °F 44.8 °F 45.0 °F 96% 30.04 in 10.0 mi NNE 3.5 mph - N/A   Clear